Location: Newark
(48.4472°N, 1.4892°E)
Time: 13:05:58
(UTC+00:00)

Vanguard 2 Rocket - Pass Details

Date: 21 November 2019
Orbit: 554 x 3326 km, 32.9° (Epoch: 14 December)

Event Time Altitude Azimuth Distance (km) Brightness Sun altitude
Exits shadow 05:08:17 - 221° (SW) 2,919 9.2 -19.8°
Reaches altitude 10° 05:08:35 10° 219° (SW) 2,904 9.2 -19.8°
Maximum altitude 05:11:39 13° 193° (SSW) 3,018 9.5 -19.3°
Drops below altitude 10° 05:15:21 10° 169° (SSE) 3,678 10.2 -18.7°
Sets 05:21:46 0° 146° (SSE) 5,383 11.5 -17.6°
